Theta_e
308 308 309 309 309 309 309 309 309 309 309 309 310 310 310 310 310 310 310 310 311 310 310 311 310 310 310 310 310 310 309 306 305 306 311 313 306 306 306 306 307 310 309 308 308 308 309 311 311 310 312 313 314 316 313 315 314 313 321 319 316 316 315 317 318 317 314 313 317 313 312 313 312 322 336 345 344 344 345 344 344 344 343 343 343 342 341 341
308 308 308 309 309 309 309 309 309 309 309 309 309 310 310 310 310 310 310 310 310 310 310 310 310 310 309 310 310 310 309 306 307 311 317 311 308 308 306 306 309 311 309 308 308 308 311 312 311 311 316 315 313 313 313 314 312 317 320 316 318 318 316 317 318 316 314 314 315 314 313 311 313 316 329 349 348 348 354 347 344 346 345 344 341 341 342 341
307 308 308 308 309 308 309 309 309 309 309 309 309 309 309 310 310 310 310 310 310 310 310 310 310 310 309 310 309 310 308 306 316 326 320 313 313 309 307 306 310 313 310 310 310 308 311 310 308 312 317 316 315 313 313 313 312 317 317 315 321 319 316 317 316 316 314 313 314 314 312 312 314 310 323 350 348 353 358 349 348 350 346 346 343 341 342 341
307 307 307 308 308 308 308 308 309 310 309 309 309 310 310 310 310 310 310 310 310 310 310 310 309 309 309 309 309 309 306 312 324 325 317 317 315 308 307 308 311 313 311 311 310 308 308 308 308 313 316 315 315 313 313 315 312 313 313 317 319 314 314 317 316 317 313 312 313 313 312 313 313 313 334 352 346 348 348 345 350 350 346 346 344 342 342 342
307 307 307 307 308 307 308 308 309 309 309 309 309 310 310 310 310 310 310 310 310 310 310 309 309 309 309 308 309 308 311 321 321 318 316 318 315 308 307 310 312 312 311 310 308 307 306 307 310 315 316 316 315 314 315 315 312 311 313 316 316 311 312 314 315 316 314 313 312 312 312 313 311 314 334 343 336 338 340 342 343 344 344 344 343 343 342 342
307 307 307 307 307 307 307 308 309 309 309 308 309 310 310 310 310 310 310 310 310 310 309 309 309 310 309 308 308 309 314 320 315 314 316 317 316 310 310 312 312 312 312 310 308 307 307 310 313 317 317 316 314 315 317 313 310 313 315 315 315 312 312 313 314 313 314 313 311 314 310 311 314 311 326 339 337 335 337 341 340 340 341 341 342 342 343 343
307 306 307 307 307 307 307 308 309 309 309 308 309 309 310 310 309 310 310 310 310 310 309 309 309 309 308 307 310 311 317 322 314 312 316 316 316 310 310 312 312 314 313 309 305 307 312 312 314 317 317 316 314 315 316 312 310 312 314 315 314 311 311 313 312 311 312 312 311 312 309 313 313 308 331 352 347 340 341 340 339 340 340 340 341 341 342 343
307 307 307 307 307 307 307 308 308 308 309 309 309 309 310 310 309 309 309 309 309 309 309 309 309 309 308 308 314 318 321 323 313 312 316 316 316 310 309 312 312 314 313 310 306 308 313 313 314 316 317 315 313 314 313 310 310 311 313 313 313 311 312 313 311 311 311 311 311 309 311 313 309 318 347 355 343 341 343 340 339 339 339 340 341 341 342 341
306 307 307 307 307 307 307 307 307 308 308 309 309 310 310 309 309 309 309 309 309 310 309 309 309 308 308 309 312 315 317 318 313 316 317 317 317 310 308 311 312 314 314 312 307 307 310 313 316 314 316 314 310 312 311 310 311 311 312 312 311 311 312 311 311 313 311 310 310 309 314 312 311 330 352 347 341 342 338 339 339 339 340 341 341 341 341 341
306 306 306 307 307 307 306 307 307 308 308 309 309 309 309 309 309 309 309 309 309 309 309 309 309 308 308 310 312 310 312 315 315 318 317 317 316 311 309 310 312 314 312 309 305 307 309 312 315 313 315 313 308 310 309 309 311 311 312 311 311 311 311 311 311 313 309 310 311 310 314 311 314 328 343 344 341 340 338 340 339 339 342 339 340 340 339 340
306 306 307 306 307 306 305 306 307 307 308 308 308 308 309 309 309 309 309 309 309 309 309 309 308 308 308 311 313 311 311 313 314 316 315 315 315 312 310 310 313 314 310 307 305 306 309 311 312 312 314 312 311 310 309 310 310 311 311 312 314 312 312 311 311 312 308 311 311 311 312 310 316 325 342 347 340 338 340 340 339 340 340 338 339 338 337 337
305 305 306 306 306 306 306 307 307 306 307 307 308 308 308 308 308 309 309 308 309 309 309 308 308 308 309 312 315 312 309 311 312 313 314 313 313 312 311 311 313 314 311 308 307 306 308 312 312 313 313 311 313 311 310 311 310 312 311 313 316 314 314 313 312 311 309 312 311 311 309 311 316 318 335 345 340 339 340 340 340 340 339 339 339 337 336 334
303 303 304 305 305 306 306 307 307 306 306 306 307 307 307 307 306 308 309 308 309 310 309 308 308 307 308 313 315 309 307 310 310 311 313 312 311 312 311 311 312 312 312 309 307 306 308 312 312 314 313 312 315 311 311 311 310 312 310 312 315 314 316 313 310 310 310 312 310 311 310 315 317 312 331 344 339 340 341 341 341 339 339 339 337 336 335 334
301 301 302 303 304 305 305 306 306 306 305 305 306 306 306 306 306 307 308 308 309 309 309 308 308 308 311 315 310 309 312 311 311 312 312 311 310 310 309 311 311 311 312 309 307 308 309 311 310 312 311 312 313 309 312 315 314 312 309 314 314 311 317 317 312 311 310 311 311 311 310 316 317 314 335 345 339 341 342 342 341 340 339 338 337 336 335 334
300 300 301 301 302 303 304 305 305 305 304 304 305 305 306 306 306 306 307 308 308 308 308 308 308 309 315 318 310 313 316 313 315 314 313 313 309 308 310 310 310 309 309 307 307 309 309 310 310 311 311 311 312 312 316 319 321 316 310 318 319 311 317 320 314 313 312 310 310 310 311 316 314 320 340 345 340 342 341 341 341 340 340 338 337 336 335 334
299 299 299 299 300 301 302 304 304 305 304 305 305 304 303 304 304 305 308 309 308 309 308 309 309 309 316 320 313 314 316 315 317 315 315 313 308 309 309 308 308 308 306 307 308 308 309 310 311 312 312 309 312 320 321 321 328 325 315 318 320 313 316 318 314 313 312 310 311 310 314 318 313 324 343 344 341 343 341 342 340 340 340 338 337 335 336 335
298 299 299 299 299 299 301 302 304 305 304 304 302 301 302 303 304 306 309 308 308 309 309 311 309 308 313 314 312 313 314 314 314 315 317 313 310 309 308 308 308 307 307 308 308 309 309 310 311 311 315 317 317 320 319 318 324 325 321 321 320 316 314 316 317 314 310 310 311 309 315 318 315 331 348 345 342 343 342 342 340 341 340 337 337 336 335 335
298 298 298 298 299 299 300 300 301 304 303 301 301 303 306 304 305 308 310 308 308 308 309 310 309 310 311 309 310 312 312 312 312 315 315 313 311 308 309 310 309 309 310 308 308 310 309 311 315 314 317 321 321 321 320 320 321 319 320 321 320 317 315 316 318 315 311 311 311 310 313 313 317 335 349 344 343 344 342 343 340 340 340 337 337 336 336 335
298 298 298 298 298 299 299 299 300 302 302 301 302 307 311 309 308 310 309 309 311 312 314 314 311 310 310 310 310 311 311 312 312 313 314 313 310 309 310 309 310 311 311 311 310 310 310 312 316 314 315 318 318 319 319 321 322 317 315 317 318 317 317 317 316 315 312 311 312 312 312 312 325 341 349 345 344 344 343 343 342 341 339 338 337 336 335 336
298 298 298 298 299 298 299 299 299 300 302 302 303 307 313 315 316 316 313 313 315 314 315 317 314 311 311 312 311 312 314 313 311 311 313 312 309 309 310 307 311 311 311 317 313 310 313 313 314 316 320 323 323 320 318 319 319 314 314 316 317 316 316 317 315 316 314 311 312 313 315 322 334 343 345 344 345 344 345 345 344 342 339 339 338 336 336 336
297 298 298 298 298 298 299 299 299 300 302 303 304 308 312 313 315 316 318 319 316 313 315 316 313 312 312 312 311 313 315 314 314 313 310 311 310 310 310 310 311 312 313 315 313 315 317 313 317 322 322 325 327 323 318 317 317 315 316 318 317 317 318 316 314 317 316 313 312 313 317 323 331 341 343 342 344 344 345 344 343 342 340 338 337 337 337 335
297 298 298 298 299 298 299 299 299 300 301 303 305 309 313 310 310 311 313 315 314 313 315 314 312 313 312 311 312 312 313 316 319 317 310 309 311 309 311 311 312 315 314 312 312 317 318 315 321 322 319 322 324 323 320 317 318 319 318 318 317 317 317 316 317 320 319 316 314 314 316 319 324 333 337 338 343 342 340 340 341 341 340 339 337 337 337 335
298 298 298 299 298 298 299 299 300 301 303 305 305 308 311 310 310 309 311 314 315 314 315 315 314 315 314 313 313 313 314 316 318 317 310 308 311 310 311 311 312 314 313 313 314 315 315 317 319 318 318 319 318 322 325 320 318 321 320 317 317 316 314 316 321 324 321 319 318 317 319 320 323 326 326 327 333 338 339 338 339 339 338 338 336 337 336 335
299 299 299 299 298 299 300 298 302 305 305 305 305 307 308 308 310 309 311 317 319 318 316 314 314 316 316 315 313 314 317 316 317 317 311 309 311 309 310 312 311 311 312 314 315 314 313 314 317 318 320 319 315 320 324 318 319 326 325 319 319 318 315 316 320 326 330 324 320 324 323 320 323 327 326 324 329 337 340 338 339 337 336 336 335 335 334 334
300 300 300 299 299 300 298 300 306 306 304 304 305 306 306 308 311 309 314 322 323 322 317 313 315 317 316 314 314 315 316 316 317 315 309 309 310 309 310 310 311 311 312 312 313 313 313 312 314 317 319 318 316 320 324 320 320 327 328 323 320 321 319 320 321 326 334 324 316 323 323 318 326 329 325 324 327 333 335 338 339 336 335 335 335 335 334 333
300 301 301 300 300 299 299 305 306 302 303 306 306 307 306 310 313 310 319 328 327 325 321 314 315 317 315 315 314 314 316 317 316 312 309 309 310 310 311 309 310 312 312 314 314 315 315 312 312 317 320 319 315 319 324 323 319 320 325 323 320 322 321 324 325 322 324 322 317 321 321 320 326 325 321 322 326 332 333 336 338 336 337 336 334 335 334 333
301 301 302 301 300 300 302 304 302 301 305 307 307 307 306 312 313 311 319 325 322 321 319 313 313 314 314 314 314 315 318 317 314 311 309 310 310 310 311 311 310 310 312 314 315 316 315 313 315 319 325 322 317 321 324 321 319 320 324 321 320 323 321 326 332 326 321 319 320 327 326 321 321 321 323 323 326 331 333 335 336 335 336 335 335 334 334 333
301 302 302 302 301 300 302 301 301 304 306 306 306 306 309 314 314 316 320 316 313 315 315 312 312 312 312 312 312 316 317 315 314 312 310 310 310 310 311 312 311 312 313 313 316 320 317 314 317 320 323 320 321 328 324 317 318 323 323 319 320 323 326 332 334 331 327 318 319 330 326 320 325 331 327 324 329 334 334 334 333 334 334 334 334 335 334 333
301 302 302 303 302 301 301 302 303 306 304 304 304 305 311 313 314 319 319 314 313 314 313 312 312 312 312 312 312 314 315 314 314 312 310 309 310 311 311 311 313 312 310 312 318 321 315 314 317 318 318 320 326 326 319 316 317 319 317 316 318 322 329 336 332 329 330 322 321 328 322 316 327 337 326 318 325 334 335 334 329 329 331 331 332 334 333 331
301 302 302 303 302 301 302 302 303 302 302 303 303 308 311 315 324 323 316 315 315 315 312 312 313 312 312 313 313 314 314 314 314 311 311 311 311 312 310 311 314 314 317 321 319 316 315 315 317 316 316 319 323 317 311 314 313 313 318 319 318 323 332 337 335 330 325 323 325 327 325 318 320 331 329 320 318 322 326 329 327 326 328 330 331 333 332 330
300 301 301 302 303 302 302 302 302 302 306 302 303 309 310 317 326 322 317 316 315 317 317 314 314 312 312 313 314 314 313 313 313 312 313 312 312 312 311 311 314 318 327 328 319 316 316 314 314 317 316 314 315 312 308 311 312 315 324 322 316 323 329 330 333 328 321 325 328 327 326 319 318 325 324 321 320 317 318 320 320 323 325 328 330 331 331 330
299 300 301 302 303 303 302 303 302 304 305 301 305 315 318 316 317 319 322 319 316 320 318 315 316 314 313 313 313 314 314 314 314 313 315 313 313 314 311 314 317 319 324 324 320 320 319 316 315 316 316 312 313 314 308 309 316 317 322 323 319 322 324 323 326 325 325 327 323 324 323 318 325 327 318 321 325 322 319 317 317 319 322 326 329 330 330 329
299 300 301 302 303 303 302 301 301 302 301 302 310 322 323 316 314 319 320 315 314 317 315 316 317 313 313 314 314 315 313 314 315 314 314 313 314 313 310 315 318 318 321 320 317 317 318 320 317 313 314 313 314 316 311 311 316 315 318 321 322 323 321 320 321 321 324 325 320 321 321 319 328 326 318 323 328 327 325 322 322 325 327 330 330 330 330 329
298 301 302 303 303 302 301 300 301 301 301 306 315 320 315 312 316 320 319 318 317 316 315 314 313 312 315 316 316 314 313 315 315 313 313 312 314 315 313 312 314 318 323 318 315 316 318 320 319 315 313 312 312 314 315 318 316 313 316 317 319 326 325 320 322 323 322 324 322 318 316 322 327 319 317 324 327 327 328 324 325 326 326 328 327 327 328 328
300 303 305 304 303 303 302 301 301 301 303 312 320 319 312 311 316 320 323 324 320 315 313 311 311 314 318 321 320 314 313 316 314 312 314 314 316 321 319 312 312 318 322 319 317 316 313 317 322 317 311 310 311 312 313 317 314 310 312 313 315 322 327 321 318 324 326 324 322 318 317 324 325 318 318 326 329 329 327 325 326 327 325 326 325 325 326 327
302 305 306 304 305 306 305 302 302 301 307 316 319 316 315 314 314 317 321 319 314 313 313 312 314 316 320 327 325 316 314 315 314 313 314 314 316 317 317 314 313 314 316 321 323 318 313 318 321 315 311 310 310 310 310 311 314 313 310 314 316 315 326 326 316 318 325 324 319 318 320 324 325 322 321 327 331 329 328 327 327 327 327 328 326 326 327 329
304 307 307 306 307 309 309 306 302 302 311 319 318 319 319 315 313 317 318 314 311 313 313 313 315 316 319 326 327 322 317 315 315 316 316 316 315 315 316 314 312 311 313 318 321 320 319 323 320 313 310 310 309 309 310 309 313 315 312 314 314 311 319 328 325 322 322 322 321 317 319 324 328 327 322 323 329 328 327 327 326 327 328 328 328 328 330 331
304 305 308 308 309 310 310 306 302 306 315 318 319 323 318 311 311 315 315 313 312 312 312 313 315 315 316 321 326 322 316 318 319 317 318 317 315 316 316 314 312 311 312 313 314 316 317 320 320 315 311 312 313 312 312 310 309 313 314 312 313 317 319 318 322 325 319 319 321 316 317 323 327 327 322 322 330 331 327 326 327 328 328 328 328 328 328 327
304 307 309 308 309 310 308 305 304 311 318 317 318 320 316 313 315 316 315 313 312 311 313 314 313 313 315 319 324 319 316 325 322 314 315 317 315 315 313 312 312 311 313 313 312 317 318 317 318 316 310 311 315 316 318 317 309 308 312 310 315 325 325 318 320 323 322 322 321 318 318 323 329 332 328 324 330 333 330 328 329 328 327 327 325 325 325 324
305 308 308 306 308 308 305 306 309 314 317 316 318 319 316 316 318 318 318 315 311 312 315 314 311 312 316 317 319 317 318 326 322 315 316 317 316 314 311 312 312 311 313 312 314 320 318 312 317 322 316 312 313 315 317 319 313 312 315 312 315 318 316 316 317 316 321 327 325 321 320 327 332 331 329 326 327 329 329 330 329 327 327 326 324 325 325 325
306 310 308 306 307 307 306 310 313 316 318 315 316 318 316 316 318 319 319 315 313 313 313 313 312 313 315 314 315 317 318 322 321 319 318 316 316 316 312 312 311 311 315 314 317 322 316 314 324 328 320 314 311 309 310 312 313 318 319 314 318 320 317 317 315 312 318 325 324 324 326 329 326 320 323 328 327 325 327 329 329 327 327 325 324 325 324 325
310 314 309 306 307 309 311 316 315 315 320 319 316 317 317 317 318 319 317 313 314 313 310 311 312 312 313 312 312 314 317 320 319 319 319 317 318 317 312 312 314 315 318 316 313 317 321 326 327 319 313 311 310 309 309 308 310 315 315 314 320 322 322 328 326 319 318 315 314 321 327 326 319 315 319 323 322 323 326 329 329 326 325 324 324 324 323 323
313 313 308 305 308 312 315 317 316 316 321 320 316 314 316 318 318 315 314 312 311 311 310 310 310 310 310 310 310 311 314 315 315 317 320 320 318 316 312 314 316 316 319 316 311 315 322 325 320 315 317 319 316 315 313 310 312 314 312 313 315 314 318 330 332 327 323 318 316 318 321 322 319 316 318 320 321 324 325 327 328 326 325 325 324 324 323 323
310 311 310 306 307 312 314 314 315 318 322 321 318 316 315 315 315 313 313 311 309 309 310 311 312 310 309 310 312 312 311 312 313 315 318 319 316 315 316 316 316 317 319 316 314 315 315 317 318 317 316 317 316 316 316 314 314 313 312 312 313 314 318 320 320 325 325 318 319 321 321 323 320 314 316 320 322 324 324 323 325 325 325 325 324 324 323 324
309 310 312 309 306 310 314 312 312 316 318 318 318 317 314 313 312 311 310 310 308 307 309 311 311 309 311 313 314 311 310 311 313 315 317 319 315 312 315 319 319 322 323 321 321 322 317 317 324 323 316 314 316 318 321 319 313 311 312 313 313 314 316 312 315 327 323 312 316 327 327 324 319 315 315 316 318 323 323 322 323 323 323 323 323 322 322 324
312 311 311 313 310 309 312 310 309 312 313 313 312 311 311 313 313 309 308 309 308 307 307 307 307 310 314 316 315 313 312 311 313 314 314 317 317 310 311 319 323 325 328 325 324 329 324 316 318 321 315 314 317 318 318 317 314 312 312 313 316 317 320 321 320 324 322 314 314 320 322 322 318 314 312 312 315 319 319 320 322 321 321 321 321 320 320 321
310 308 306 310 311 310 310 308 307 308 309 311 310 308 308 310 310 309 309 309 307 307 308 304 304 309 313 314 317 316 314 312 313 313 311 312 316 314 310 311 314 319 325 323 322 330 330 318 314 317 313 309 311 311 309 311 313 313 312 314 318 321 325 326 318 312 316 320 317 314 318 322 315 309 310 310 311 314 314 314 316 316 318 319 319 320 319 319
306 305 303 304 307 309 309 307 307 306 306 309 309 307 307 307 308 308 309 310 307 307 310 308 304 304 305 310 318 316 313 314 313 311 311 310 313 315 313 310 309 312 317 319 320 329 330 319 312 315 313 309 308 307 308 311 311 312 315 316 319 323 324 320 316 312 314 321 322 316 317 318 310 306 309 309 308 309 309 308 309 310 313 316 319 320 319 318
304 305 305 305 305 306 306 306 306 306 306 308 307 305 305 306 307 306 306 311 311 307 310 310 304 302 302 307 316 313 309 313 312 308 309 310 311 313 312 313 311 308 312 317 316 320 324 317 312 313 313 309 309 309 310 312 313 313 313 312 314 318 317 315 314 312 312 314 314 312 314 311 306 306 307 307 307 306 305 306 307 308 310 312 315 315 314 314
302 302 304 306 305 304 304 305 306 307 307 307 306 305 303 304 306 304 302 306 309 307 308 307 304 303 302 303 310 308 305 308 308 306 307 310 313 311 308 309 308 305 311 317 313 314 319 316 315 319 317 310 310 314 314 316 317 315 314 312 313 314 314 313 312 311 312 311 307 310 315 309 305 305 305 305 305 304 304 306 306 307 308 308 310 310 310 309
299 298 299 304 305 302 304 306 306 308 308 306 306 306 304 303 304 305 303 301 302 303 305 306 305 304 303 303 305 305 303 306 307 306 306 307 309 308 306 307 306 305 310 314 313 318 322 315 313 319 316 309 309 314 317 317 314 313 314 314 315 316 316 313 310 308 310 310 309 314 316 309 306 306 304 302 302 302 303 304 304 305 307 307 308 308 308 308
300 299 298 304 305 301 301 304 305 308 307 305 305 305 304 302 302 305 307 302 300 300 301 304 305 305 305 304 304 303 302 304 305 305 304 305 305 306 306 306 305 304 306 309 311 317 319 313 311 315 314 309 308 310 312 312 311 313 313 310 309 310 309 308 306 304 304 307 312 316 313 306 305 306 303 301 301 301 301 301 302 304 304 305 306 306 306 307
Wind_Speed
15 14 14 14 13 13 13 13 12 13 12 12 12 12 12 11 12 12 12 11 11 12 12 12 12 13 14 14 15 16 19 20 20 17 10 10 10 7 7 4 7 14 12 6 4 3 5 5 4 5 5 3 1 0 0 0 1 3 3 2 2 3 3 5 5 5 2 3 5 6 4 3 3 2 2 5 8 5 7 6 6 6 7 8 13 25 28 25
15 15 14 14 14 14 14 13 12 12 12 13 12 12 12 11 11 11 12 12 11 11 11 12 12 12 13 13 14 16 19 20 18 16 12 9 7 5 7 8 7 11 12 8 6 5 6 3 3 5 4 2 1 1 0 1 1 2 3 2 3 5 4 5 6 5 2 3 6 7 3 3 1 4 3 3 2 2 6 5 6 9 9 11 15 23 25 26
16 15 15 14 14 14 14 13 12 12 13 13 12 12 12 12 12 11 11 12 11 11 11 11 11 12 12 13 13 15 18 15 10 8 6 4 4 7 8 12 10 9 8 5 6 5 6 5 5 5 4 2 1 1 1 1 1 2 3 1 5 6 4 5 5 6 4 2 6 8 4 6 4 4 2 5 4 1 3 3 6 9 10 12 13 18 22 24
16 16 15 15 15 15 14 13 13 13 13 13 13 12 12 12 12 11 11 11 11 11 11 11 11 11 12 12 13 15 13 7 3 4 1 3 1 7 12 14 12 9 7 6 6 5 6 6 5 5 4 2 3 2 1 1 1 1 3 4 5 4 2 6 8 8 5 1 3 5 5 7 6 2 3 8 7 1 5 6 7 12 14 14 14 15 18 19
17 16 15 15 15 15 14 13 13 13 13 13 13 12 12 12 12 12 11 11 11 11 11 11 11 11 12 12 13 12 6 3 2 3 2 2 2 8 16 15 12 9 8 7 7 7 6 4 5 5 4 2 2 3 1 3 3 1 3 5 5 5 2 7 7 6 5 1 2 4 4 4 4 4 3 7 5 4 6 7 8 13 16 14 15 15 14 15
17 17 16 16 16 15 15 14 14 13 13 13 12 12 12 12 12 12 11 11 11 11 11 11 11 11 12 12 11 6 2 1 5 5 3 2 0 10 18 16 13 10 9 7 6 7 4 4 6 3 3 2 2 2 4 3 2 2 4 3 4 5 3 5 3 4 3 1 5 3 2 2 3 3 1 3 3 6 5 5 10 14 15 14 15 14 13 14
18 18 17 17 16 16 15 14 14 14 14 13 12 12 12 12 12 11 11 11 11 10 11 10 11 10 11 11 6 3 3 4 8 5 5 3 2 13 20 17 14 12 10 8 6 5 4 6 4 3 4 2 3 3 4 1 1 3 3 4 4 5 5 7 3 3 3 5 8 2 4 5 3 3 1 1 4 4 1 7 14 15 14 14 14 13 14 14
18 18 17 17 17 16 15 15 14 14 14 13 12 12 12 12 11 11 11 10 10 10 10 9 10 9 11 8 2 3 1 7 7 5 6 4 4 14 22 18 16 14 11 9 6 5 5 6 4 3 3 1 4 3 3 2 2 3 5 4 2 3 6 7 5 6 6 7 6 1 6 8 6 2 3 2 4 3 6 10 14 15 13 12 13 13 13 12
19 19 18 18 17 16 15 15 14 14 14 13 12 12 12 11 11 11 10 11 10 10 9 8 8 8 8 6 2 2 3 5 6 5 4 4 5 14 21 18 17 14 10 10 8 5 4 4 4 4 3 2 4 2 2 2 1 5 6 4 3 4 6 5 6 7 5 5 3 2 8 9 3 4 1 2 2 5 9 12 14 14 12 10 11 12 12 11
19 19 19 18 17 17 16 15 14 14 13 13 13 12 12 11 11 11 10 11 10 9 8 7 7 6 6 4 3 1 4 4 6 4 3 4 5 13 21 18 18 16 10 9 8 7 5 5 5 4 4 3 3 2 2 4 3 5 5 4 6 6 6 2 5 6 2 4 5 7 7 6 2 2 2 2 6 8 11 14 13 11 10 10 10 10 10 9
19 19 19 19 18 17 16 15 14 13 13 12 12 12 12 11 11 11 10 10 9 8 7 6 6 4 3 2 3 3 4 5 6 4 3 4 4 11 19 18 18 17 11 7 9 12 8 6 6 4 2 1 2 1 2 5 3 4 4 3 6 5 6 3 4 6 1 3 7 9 4 2 4 1 4 5 8 9 12 14 12 9 8 10 10 8 6 6
19 19 19 19 18 17 16 15 14 13 13 12 12 12 11 10 10 10 9 9 8 7 5 3 3 2 2 2 4 8 5 5 7 7 3 3 2 7 15 16 17 17 14 8 9 16 11 6 6 4 0 1 0 1 2 4 2 1 3 2 7 7 6 5 4 4 4 3 6 9 1 2 0 4 3 8 10 8 11 13 12 9 7 9 9 7 5 5
20 20 19 19 18 18 17 15 14 13 12 12 11 11 10 9 9 9 8 8 7 6 4 2 2 1 1 1 7 8 8 10 10 9 6 5 3 5 10 14 14 14 15 12 8 12 12 6 4 2 1 2 1 2 1 1 1 1 2 1 4 7 6 6 1 2 4 3 5 8 2 5 6 8 4 10 12 11 12 12 10 7 8 9 7 6 5 5
20 20 20 19 19 18 18 16 14 13 12 11 11 10 9 9 8 8 7 7 6 5 3 2 1 1 2 6 10 9 11 12 11 12 9 8 5 4 7 11 12 12 15 13 5 3 9 8 2 2 1 3 2 3 2 5 3 1 1 2 2 1 4 8 2 4 4 2 5 7 3 6 7 8 6 10 12 14 13 13 11 8 8 9 8 7 6 4
21 20 20 20 20 19 18 18 16 13 12 11 10 9 9 8 8 7 6 5 4 1 2 3 2 1 1 8 11 6 6 7 10 14 12 10 7 4 8 12 12 13 13 11 5 2 5 6 2 1 3 2 2 2 3 4 3 3 1 2 3 1 4 9 4 6 6 2 3 6 3 5 7 7 9 11 10 11 11 12 12 9 9 8 7 7 5 3
21 21 20 20 20 20 19 19 17 14 12 10 9 9 8 7 6 5 4 3 1 2 3 2 2 2 1 6 5 2 4 5 7 10 11 12 8 4 10 12 9 10 11 8 6 4 3 3 1 1 1 1 4 4 3 4 4 4 2 2 2 1 2 6 3 5 6 1 1 5 3 3 5 5 9 11 11 9 9 11 12 12 10 7 5 5 5 4
21 21 20 20 20 20 19 19 18 15 12 10 9 8 7 6 4 2 1 0 1 4 5 2 0 2 3 7 4 3 4 4 5 7 11 14 10 6 10 8 4 6 7 5 5 4 2 1 0 0 2 2 3 4 3 3 3 4 2 0 3 2 1 3 5 5 2 2 3 3 5 5 5 3 9 11 12 9 9 11 12 12 9 5 5 5 6 5
21 21 20 20 20 19 19 19 19 17 12 10 8 8 6 3 3 1 2 5 4 3 4 1 1 0 3 5 3 4 5 5 5 5 10 13 11 9 5 3 4 4 2 1 2 2 1 0 2 2 3 4 3 5 3 3 3 2 1 1 2 3 2 3 5 4 2 1 4 3 4 7 6 3 9 10 12 10 8 9 9 10 7 6 5 5 5 5
21 21 20 21 20 19 19 19 19 18 13 9 7 5 2 2 3 3 4 5 4 2 2 3 3 1 3 4 5 7 10 8 5 5 10 11 10 9 1 3 4 4 3 2 1 1 2 2 3 2 1 1 2 5 6 7 5 5 4 3 3 3 4 5 6 5 1 2 5 6 6 6 3 5 9 10 10 9 8 7 7 7 7 6 6 5 6 7
21 21 21 21 20 19 19 18 19 18 14 8 5 3 1 3 3 1 1 2 5 5 5 5 7 4 6 6 5 7 9 5 3 4 10 11 9 7 0 3 5 5 2 3 2 1 3 3 1 4 5 6 7 6 6 5 5 5 3 2 3 3 4 6 5 6 2 5 4 6 6 5 6 8 8 9 7 7 8 7 6 7 7 7 8 8 8 7
22 21 21 21 21 20 19 19 19 18 14 9 5 2 0 1 2 3 2 4 8 9 9 9 10 9 8 6 4 5 5 3 3 1 7 11 9 7 1 2 5 2 1 3 2 3 5 3 5 8 9 8 6 5 4 4 4 3 2 1 3 3 5 7 4 5 2 4 2 2 6 2 5 7 6 8 9 9 10 9 9 10 9 8 9 10 9 5
22 21 21 21 21 20 19 19 20 17 12 7 4 1 2 1 0 3 2 4 8 10 12 12 8 10 11 10 9 2 2 2 6 5 6 10 6 4 1 4 5 2 2 2 2 5 4 2 9 9 6 5 4 5 5 4 3 3 2 2 2 3 4 7 3 4 3 3 1 2 6 1 3 4 4 6 7 6 6 6 7 9 9 9 10 10 8 6
23 22 22 21 21 21 19 19 19 14 7 5 4 3 3 4 4 6 1 3 8 6 9 9 6 7 8 8 9 6 3 3 4 5 8 11 3 4 4 4 5 3 2 3 4 1 0 5 8 5 7 6 3 3 7 5 2 3 3 3 3 3 1 3 4 5 5 2 3 5 6 3 4 1 2 3 1 3 4 5 4 6 8 8 9 8 7 8
24 24 23 22 22 20 19 19 13 6 6 8 9 5 4 9 9 7 2 1 5 3 5 8 6 6 7 5 8 11 3 5 4 4 9 12 4 3 5 4 5 3 2 5 7 5 5 6 2 6 7 7 4 3 6 5 1 3 4 5 4 4 4 5 4 5 5 4 4 5 5 4 3 1 4 3 2 4 4 6 6 5 5 4 5 6 6 7
24 24 24 24 23 21 20 14 3 4 12 12 8 5 9 14 10 2 2 1 3 5 3 4 3 5 7 5 9 11 3 3 5 5 10 13 8 3 2 3 4 3 5 5 7 3 7 6 5 6 4 5 5 4 5 7 2 4 4 8 8 5 5 4 3 5 4 4 3 4 5 2 5 1 5 3 1 2 2 6 7 6 5 5 6 6 6 6
25 25 25 24 23 23 17 5 1 10 14 8 2 8 15 16 7 4 3 4 3 5 3 1 1 4 7 6 7 6 3 3 6 7 10 12 11 6 2 1 1 3 5 5 4 2 4 3 4 6 5 5 4 4 5 7 5 2 5 8 8 6 3 1 1 3 2 0 2 3 5 1 5 3 3 3 1 1 1 5 6 5 6 6 6 5 5 6
25 25 25 23 22 21 11 3 9 11 6 3 4 12 17 14 2 5 3 5 3 3 1 1 0 4 6 5 7 6 2 3 2 5 8 12 10 4 2 3 0 2 4 4 1 2 4 2 3 4 5 5 4 4 6 8 8 3 5 6 7 6 4 3 4 3 2 2 2 5 5 4 1 3 4 3 2 2 3 6 6 6 7 6 6 6 6 7
26 26 25 23 21 16 9 10 12 7 4 6 9 14 17 11 1 5 4 3 2 2 2 1 1 4 2 4 7 5 2 1 3 2 4 13 11 3 2 7 5 5 3 5 3 5 3 4 2 4 5 2 4 5 7 10 6 5 5 7 6 5 5 4 5 3 1 1 1 6 4 4 2 5 5 4 3 4 6 8 8 7 8 8 7 6 7 7
27 27 25 24 21 15 10 9 8 6 7 9 12 16 14 5 2 4 4 0 2 1 0 0 1 2 1 3 5 4 2 1 2 2 1 7 7 2 4 6 5 6 1 4 5 6 3 5 5 5 3 4 6 5 9 10 4 4 6 6 5 6 5 5 5 3 3 3 3 6 4 3 2 5 3 3 1 5 7 6 7 7 7 7 7 6 7 6
28 27 26 23 18 12 7 9 13 11 8 9 14 16 10 2 4 4 1 2 3 2 0 0 0 1 4 5 3 5 3 2 1 1 3 2 1 4 3 3 6 5 1 3 2 5 3 2 3 3 3 5 4 2 5 5 3 4 6 6 6 6 5 4 3 4 4 2 5 6 2 3 1 5 3 0 1 5 5 6 6 7 7 8 7 7 7 6
30 28 25 21 16 10 5 7 11 6 2 9 17 12 4 3 4 4 3 4 3 2 2 1 2 2 3 4 3 3 2 2 1 3 2 1 2 4 1 1 4 3 3 4 3 4 6 4 2 3 2 4 5 4 2 2 3 5 5 5 4 4 5 4 4 3 4 2 5 5 3 3 3 3 3 4 7 6 6 7 7 6 7 8 8 6 6 6
31 28 25 21 17 13 11 9 9 7 7 13 13 5 3 2 1 2 4 4 2 1 1 1 2 2 1 2 3 3 2 1 1 3 4 3 3 3 3 4 3 3 3 3 2 4 4 3 4 5 2 4 5 4 3 5 5 5 5 5 4 2 3 2 3 1 1 4 4 3 3 2 3 4 4 6 9 6 5 7 7 6 7 6 6 5 5 5
32 28 25 20 16 17 19 15 12 13 13 9 4 4 6 3 3 5 4 3 1 2 1 1 3 3 1 1 2 4 2 3 4 3 3 3 4 4 2 2 6 4 1 3 1 2 4 5 4 3 3 2 6 5 2 1 1 4 5 5 4 3 3 1 2 1 2 4 2 4 3 1 3 3 3 5 7 6 5 5 4 4 4 5 6 5 5 5
31 27 23 19 17 20 20 16 12 9 6 1 3 4 5 3 4 4 3 4 3 3 2 1 4 4 1 0 2 3 2 3 4 4 2 3 3 3 2 1 3 5 3 2 2 2 2 3 3 3 2 1 4 5 5 5 3 3 4 5 5 4 4 3 3 2 2 2 2 4 1 2 2 2 4 5 5 5 4 3 2 3 5 6 7 7 7 6
29 24 21 17 16 16 16 17 15 9 5 3 5 4 4 4 4 2 3 4 2 3 3 3 2 3 3 3 3 1 3 2 1 5 2 3 4 4 3 4 4 4 5 3 2 2 3 4 6 4 1 2 3 2 4 6 3 1 3 5 3 5 5 3 3 4 4 2 1 2 1 2 3 3 5 4 4 6 5 4 6 7 6 8 8 8 7 5
27 23 15 9 10 13 11 12 16 15 8 5 4 2 4 4 4 3 3 2 0 1 3 5 3 2 3 3 3 3 2 1 2 3 1 3 4 4 3 4 5 6 6 5 3 1 3 4 6 4 2 2 3 3 4 4 2 1 2 3 4 4 7 6 2 1 3 4 1 1 1 2 2 2 5 5 5 5 5 4 5 6 8 9 8 7 7 5
26 19 7 6 15 17 14 9 16 18 7 6 5 5 4 4 5 4 2 1 1 2 4 2 1 0 1 1 2 2 1 1 1 2 1 2 2 3 3 2 3 8 7 5 3 3 4 2 6 1 2 2 1 3 4 3 4 4 3 5 3 3 5 5 3 3 4 3 2 2 0 2 1 0 4 4 2 2 4 4 3 4 7 9 8 8 9 8
20 11 3 11 22 18 12 9 20 16 5 4 5 4 3 3 4 4 1 2 1 2 4 2 2 1 1 1 3 3 2 1 3 2 1 2 1 2 1 1 2 4 5 5 2 2 4 0 7 2 2 4 5 6 4 4 4 4 4 4 4 3 1 2 3 2 2 2 2 3 2 2 2 2 3 3 4 3 1 0 2 3 5 6 6 7 8 8
10 4 2 16 27 16 4 15 19 9 4 5 5 3 3 4 4 3 1 1 1 2 1 3 2 1 1 2 3 2 2 3 1 2 0 1 1 1 0 1 2 1 2 7 5 1 3 2 4 3 1 2 5 4 2 2 4 4 2 3 2 2 4 2 3 3 4 4 2 1 2 2 5 4 5 6 7 6 5 3 1 2 3 3 3 5 6 6
4 1 2 19 25 7 11 15 10 4 3 5 4 3 2 3 4 4 3 2 1 1 1 3 2 1 3 2 2 2 0 3 3 1 1 1 1 1 2 1 2 1 1 5 4 1 3 3 3 4 3 2 1 0 3 4 2 3 2 1 1 2 3 2 2 2 4 5 3 2 1 4 5 3 5 6 7 7 5 3 1 2 4 3 2 4 6 6
3 3 3 19 16 8 10 5 2 2 4 2 1 3 2 1 1 4 3 2 2 3 3 3 3 3 3 2 2 3 0 1 3 3 2 2 2 1 2 1 3 1 2 5 3 1 2 3 3 2 4 2 1 3 3 4 5 5 3 3 3 3 4 4 2 1 2 4 4 5 2 5 4 2 3 4 5 6 4 4 2 2 4 4 4 5 5 5
3 3 6 18 7 8 4 3 1 1 3 2 1 3 1 1 2 3 3 1 2 3 1 2 4 4 4 3 3 4 2 1 3 3 3 3 3 3 1 2 1 1 3 4 1 2 3 4 3 1 1 1 4 4 3 1 4 6 4 2 4 3 4 5 4 3 2 3 2 4 2 4 5 3 5 5 4 5 5 6 5 3 4 4 4 5 5 4
3 1 8 18 4 8 4 3 2 3 1 3 2 2 1 1 1 2 1 1 1 2 1 1 4 2 3 3 1 2 1 2 2 2 2 2 2 4 3 2 2 2 4 2 1 1 2 3 4 1 3 4 5 5 5 4 6 6 4 3 3 2 2 5 5 4 4 3 2 3 1 4 5 5 4 3 1 2 4 5 6 4 3 4 5 5 5 3
2 3 5 17 13 5 4 3 2 3 2 4 4 2 3 1 2 2 2 1 2 1 1 2 1 1 1 1 3 1 0 1 1 1 1 1 1 3 1 3 3 3 3 1 2 1 0 1 4 3 2 3 3 4 5 5 4 4 1 2 2 3 4 3 2 3 3 4 4 5 3 5 4 5 6 6 6 6 5 4 5 5 4 4 4 4 4 3
2 0 4 11 18 12 3 1 1 1 2 4 3 4 5 1 2 2 2 2 2 2 0 2 1 1 1 3 3 2 3 2 1 2 2 2 3 3 3 6 6 4 3 2 1 3 3 2 3 5 4 4 3 2 3 1 2 1 1 3 4 4 4 2 2 4 2 3 4 5 4 4 4 7 9 9 8 7 6 5 5 4 4 4 3 3 3 3
2 3 3 6 9 8 2 0 1 0 1 2 2 4 4 2 4 3 4 3 2 2 2 2 3 2 3 5 4 3 6 4 2 3 4 3 3 3 5 4 6 4 4 6 6 4 5 3 2 5 4 5 6 5 4 3 3 1 1 3 4 2 2 3 4 2 4 4 2 2 4 3 4 8 9 9 8 6 6 6 5 5 5 5 4 4 5 5
2 1 2 3 3 4 3 4 5 4 3 2 2 4 5 3 3 3 4 3 1 2 3 3 5 4 3 3 4 3 5 5 5 4 3 4 3 3 6 5 7 4 1 4 5 3 5 3 3 5 5 1 2 2 2 4 5 2 1 3 4 4 5 6 4 1 3 6 1 5 1 4 3 6 7 7 7 5 6 6 5 5 5 4 4 5 6 6
3 1 0 0 2 3 3 4 7 8 9 6 2 3 6 6 4 4 4 2 2 3 2 4 8 7 3 1 4 3 5 4 5 4 3 4 3 4 6 4 6 8 5 2 3 3 6 2 2 3 5 6 5 5 6 6 4 4 4 4 4 6 7 6 3 2 2 5 4 2 5 5 3 5 5 5 5 4 5 5 4 5 5 5 7 7 7 7
3 1 2 1 3 3 2 3 6 8 12 9 4 5 8 8 7 5 4 3 4 5 4 4 6 8 6 4 4 4 4 3 4 4 3 3 4 3 4 4 4 7 5 3 3 3 4 2 1 4 5 6 7 6 7 8 6 5 6 6 5 8 9 7 3 3 4 4 4 7 11 6 3 4 5 5 4 3 5 6 7 7 7 7 8 8 7 7
2 0 3 2 3 3 3 3 3 4 8 8 6 6 8 8 7 6 6 6 4 6 5 5 4 6 7 8 7 5 1 2 3 2 1 2 3 3 3 1 3 6 6 3 2 3 4 3 2 5 5 4 6 5 6 7 5 4 5 6 5 8 9 7 4 4 5 5 4 8 11 7 3 3 4 5 4 6 9 10 9 8 7 8 10 9 8 8
2 2 0 2 3 5 4 3 2 3 4 5 5 6 8 9 8 4 5 7 6 4 5 3 3 4 5 9 9 4 1 3 3 3 3 2 1 2 1 1 2 5 6 4 2 3 4 3 2 5 5 2 3 1 1 4 6 4 3 5 6 5 5 4 2 2 2 4 4 6 7 3 1 3 4 5 8 11 11 9 8 7 7 9 10 9 8 8
6 1 2 3 2 5 3 2 3 3 2 2 3 4 5 8 9 5 3 5 7 7 5 3 2 3 5 8 8 5 5 4 6 6 5 4 4 3 2 3 3 2 4 3 2 2 2 5 4 4 4 3 1 2 4 5 6 2 2 2 3 3 5 5 4 4 2 3 5 4 3 4 2 1 4 7 10 11 9 7 7 7 7 9 9 8 8 7
Wind_Direction
324 322 320 318 317 316 316 314 313 313 314 313 313 313 315 319 318 319 317 317 319 316 319 320 321 324 323 323 325 323 318 318 319 316 295 272 286 271 246 234 182 183 188 197 190 128 107 92 102 125 118 108 25 52 220 91 111 59 89 119 212 190 178 183 192 189 181 269 283 325 12 44 19 54 129 54 39 61 67 52 64 53 61 88 116 129 137 147
324 322 321 319 316 315 316 314 313 313 313 313 313 313 314 316 318 321 318 318 319 318 321 321 322 324 323 325 325 321 319 320 315 295 275 273 274 252 218 189 172 183 193 211 210 147 116 105 116 115 88 84 339 26 73 275 133 104 115 155 218 194 207 202 196 204 211 269 294 311 335 352 295 160 145 96 20 41 78 66 86 88 91 102 118 129 139 148
325 323 321 319 316 317 317 314 313 312 312 313 312 313 314 315 316 316 316 318 319 322 322 321 323 323 325 326 324 321 319 322 315 276 271 321 251 222 199 180 170 172 180 180 186 154 127 139 136 111 69 74 337 44 80 338 182 160 133 193 240 206 227 251 238 230 228 298 310 303 327 331 286 169 131 133 131 90 130 142 124 127 132 127 131 135 143 149
327 324 321 318 316 317 317 315 314 312 311 311 312 313 312 314 315 315 316 318 319 323 322 323 324 324 328 325 322 318 320 333 305 251 242 351 316 184 182 180 169 165 156 118 137 144 123 122 107 91 80 78 333 20 110 277 207 172 150 194 232 175 203 260 243 251 263 253 268 291 337 323 305 82 115 132 121 254 222 211 180 157 149 140 141 143 148 150
330 326 323 319 317 318 317 316 315 313 312 312 312 311 310 314 314 315 317 319 320 322 323 324 325 327 327 323 325 319 331 40 252 273 286 314 1 171 176 174 169 169 147 115 128 131 116 98 70 63 72 90 13 36 244 248 138 152 233 204 202 147 202 255 220 241 257 190 252 298 331 300 325 31 127 136 138 223 223 215 191 158 152 148 146 147 149 151
333 330 326 321 320 319 317 317 316 314 313 311 313 311 311 312 312 314 317 321 321 322 325 326 328 328 325 325 330 331 46 47 270 294 299 272 61 172 172 171 173 168 151 139 136 128 110 71 62 73 68 76 119 131 240 259 118 202 273 258 227 172 213 259 200 210 206 229 267 256 298 292 33 7 182 143 204 250 253 184 160 154 152 147 145 149 152 157
337 334 330 324 323 321 317 317 315 313 311 310 312 311 311 310 312 314 314 319 319 322 325 325 330 326 327 332 328 22 82 264 274 292 284 258 189 174 173 175 175 169 159 145 124 126 113 89 89 123 95 85 161 201 233 273 98 191 260 295 264 178 208 253 249 237 207 242 256 251 333 300 284 291 90 27 297 289 344 129 145 151 147 144 147 154 159 163
340 338 333 329 326 322 319 316 313 310 309 310 312 310 309 309 311 313 314 318 318 324 325 323 333 326 332 346 355 17 331 257 277 288 275 249 185 176 178 177 176 175 163 158 154 151 126 115 146 137 98 173 170 195 215 77 38 201 222 267 267 192 229 258 275 272 250 243 250 301 292 269 245 197 97 343 318 54 98 124 142 144 141 149 154 157 163 167
343 340 336 333 330 326 321 317 313 310 310 311 311 308 307 308 310 314 315 317 319 321 322 326 328 324 334 352 59 355 270 273 312 299 280 243 200 182 182 179 180 180 164 173 183 170 158 156 185 166 150 181 156 193 202 123 270 218 207 243 265 272 272 278 285 273 254 242 193 181 262 268 237 141 83 291 139 116 123 135 143 141 142 152 155 161 168 169
344 342 340 337 334 330 324 320 316 313 313 310 307 307 307 309 308 311 313 313 318 318 320 326 321 321 330 343 81 347 277 332 338 293 273 237 204 181 184 185 183 182 166 171 185 181 179 183 189 159 139 126 144 192 165 149 200 199 188 241 248 272 295 276 271 269 235 241 185 179 242 284 329 138 240 222 140 138 133 138 148 141 143 152 157 168 171 173
345 344 343 341 339 334 328 324 320 315 311 307 307 306 307 308 305 307 310 309 313 315 317 323 327 330 330 26 110 214 272 357 3 332 279 237 209 186 189 190 186 182 165 159 197 204 201 187 164 107 110 148 166 222 229 188 176 177 168 275 278 307 309 236 249 266 203 233 199 176 213 8 37 256 220 171 143 148 138 142 153 142 141 153 160 170 174 178
347 346 345 344 342 339 334 329 324 318 312 309 308 306 305 303 302 305 307 308 312 315 318 320 324 310 335 31 202 229 270 327 334 331 289 220 208 201 198 195 193 190 177 169 210 211 206 182 133 84 241 167 83 308 228 199 172 176 133 285 300 357 334 255 242 239 173 206 189 154 151 353 261 249 214 144 142 148 139 146 154 144 144 155 167 175 176 175
350 349 348 347 345 342 338 333 327 320 314 310 305 304 303 299 300 303 303 306 307 306 311 310 293 272 5 301 237 255 295 293 294 299 268 213 201 203 203 200 199 202 197 193 206 209 209 196 115 71 213 134 263 242 120 54 41 300 85 99 309 6 333 273 270 143 159 187 159 141 226 274 256 262 213 148 148 148 146 155 155 144 154 164 175 181 180 174
350 351 350 349 348 345 341 338 331 323 317 313 308 306 303 299 297 297 301 300 299 301 283 249 256 113 121 261 269 295 299 279 269 266 247 216 196 182 198 199 201 207 209 208 204 208 211 209 157 29 228 165 234 263 7 9 16 347 30 41 359 19 285 288 314 126 164 209 141 144 231 253 264 268 196 159 157 154 154 164 162 152 161 172 183 186 189 178
351 351 351 351 351 349 346 343 337 327 320 314 311 307 300 297 294 293 296 287 292 303 190 193 208 130 20 279 281 298 285 266 254 251 244 216 187 165 187 191 200 207 211 212 191 119 171 181 164 84 256 242 57 39 1 351 4 37 90 314 347 158 267 302 293 169 189 286 111 148 222 258 261 245 182 164 164 161 157 166 170 166 164 173 186 188 188 172
351 351 351 351 351 351 349 347 342 332 323 318 313 311 304 300 293 288 289 281 287 164 162 161 197 160 327 287 293 306 260 260 263 254 237 214 199 175 172 175 195 206 210 215 195 198 176 143 154 152 214 349 73 84 43 14 348 1 101 223 279 176 279 316 312 211 201 221 110 161 171 244 265 225 174 165 169 169 160 166 174 174 172 174 174 178 186 182
350 350 350 351 351 351 350 350 347 336 327 325 321 318 312 297 274 278 310 115 141 181 169 150 154 158 256 280 301 307 274 262 272 252 215 207 207 172 150 155 182 192 200 199 182 205 207 150 210 35 50 43 73 93 63 13 310 321 31 125 246 213 260 308 311 287 175 144 220 173 154 228 275 188 165 169 174 174 168 173 181 178 171 162 155 177 195 196
348 348 348 349 349 349 350 351 349 341 331 331 334 336 324 272 208 148 107 124 116 138 167 220 324 121 272 281 284 291 308 306 297 253 203 199 200 184 144 127 143 130 101 90 150 157 144 19 54 67 16 15 45 88 121 219 203 197 183 50 292 287 274 259 279 290 55 83 222 167 181 248 286 175 169 173 175 176 176 174 182 179 162 154 166 187 196 204
346 346 346 347 348 348 347 348 349 343 335 335 339 345 356 137 140 126 120 123 116 132 236 236 179 179 270 266 271 294 311 310 294 238 194 186 188 193 186 60 104 97 80 73 281 201 124 52 58 104 312 298 193 148 175 204 164 149 171 161 202 266 277 250 256 260 139 138 212 189 198 228 219 174 175 174 172 171 173 168 167 166 157 164 179 189 200 213
345 346 344 344 344 345 345 344 345 340 335 335 326 333 50 83 60 38 129 179 206 224 259 225 185 229 277 271 292 324 325 310 270 213 189 182 162 155 155 33 53 48 90 146 213 284 97 107 187 200 207 219 214 186 168 167 129 115 126 160 210 221 272 265 265 281 179 144 223 197 175 204 193 181 177 167 160 159 167 169 163 158 163 179 187 193 204 215
346 345 342 341 341 342 344 340 338 334 331 326 312 317 174 118 17 312 270 243 235 226 247 234 201 229 253 257 306 5 359 326 311 314 184 180 143 127 263 37 68 29 279 172 160 6 61 115 229 221 205 206 201 174 144 128 103 84 128 205 271 219 250 262 254 303 293 137 279 174 139 213 211 182 175 161 163 174 176 176 171 164 170 185 192 198 202 205
345 343 339 339 338 339 342 338 332 325 319 315 306 278 259 248 262 277 266 286 264 218 227 240 223 244 252 257 271 286 48 316 313 321 171 162 138 153 192 74 120 207 300 103 82 0 27 233 245 228 184 158 146 136 131 135 113 83 122 159 278 243 273 288 270 316 336 120 292 123 116 342 266 198 191 178 175 178 172 174 176 171 176 188 195 202 199 190
343 341 339 338 336 337 340 335 327 321 319 312 280 238 270 315 306 285 279 308 283 220 212 229 219 240 248 257 242 191 147 203 262 290 174 153 150 172 142 104 145 154 66 127 153 128 208 255 250 199 146 141 151 130 116 106 102 118 138 142 253 258 299 296 282 327 348 75 130 125 101 23 334 3 246 250 169 114 125 148 174 192 195 199 199 203 202 195
343 341 339 336 335 335 338 334 326 336 349 311 283 269 312 330 321 293 235 253 284 270 221 207 192 214 226 240 194 167 172 197 192 258 177 153 135 149 152 148 134 134 198 177 154 163 220 238 182 127 144 159 168 157 129 130 248 254 186 169 219 246 207 224 285 335 351 27 75 89 65 10 354 141 227 278 57 103 139 155 175 206 210 214 207 203 204 202
342 340 338 337 335 333 336 334 330 6 337 305 282 317 342 339 332 259 171 15 290 289 278 200 188 217 205 181 167 163 161 207 207 216 175 159 150 138 183 168 129 184 208 158 133 180 245 236 153 139 168 170 167 194 179 164 194 304 237 202 203 203 211 244 336 16 34 20 10 60 67 334 321 278 217 252 86 107 158 175 184 195 194 205 207 201 196 199
341 339 337 337 334 333 338 337 306 339 327 297 275 339 338 340 339 175 136 31 303 282 306 175 189 197 182 163 164 149 112 245 228 184 164 170 166 141 137 176 112 200 183 146 137 195 251 237 143 149 156 155 170 230 222 162 126 316 246 205 188 165 155 191 54 69 95 231 318 64 109 193 319 313 247 271 205 170 195 196 198 193 197 206 204 202 191 192
340 338 337 335 335 338 341 300 308 322 310 274 321 332 334 342 339 169 90 26 313 275 215 216 241 173 180 178 166 140 140 258 209 153 162 174 173 112 137 197 146 188 172 123 125 231 199 156 89 115 113 126 160 240 228 147 122 235 231 159 148 153 157 147 106 96 177 213 334 16 93 118 338 277 286 335 140 211 241 214 218 207 203 210 204 200 195 193
338 337 335 331 333 335 315 290 300 297 255 287 318 328 335 342 196 152 70 34 297 297 181 253 198 167 179 172 171 169 197 169 118 215 196 171 174 91 172 215 185 181 179 121 181 261 191 173 197 133 99 132 193 214 193 150 140 240 205 137 134 142 140 117 95 85 26 114 307 329 31 100 246 276 318 20 129 238 247 221 221 214 206 209 204 200 198 193
336 335 331 328 328 327 311 281 271 273 288 307 326 330 333 343 126 93 67 75 273 319 125 3 134 171 90 136 199 241 291 53 135 252 39 160 185 101 166 210 155 159 205 120 185 256 234 204 201 145 125 216 220 208 179 161 172 210 144 103 69 74 78 74 90 97 41 67 224 289 355 102 252 288 329 40 110 243 254 239 224 215 210 208 203 202 195 186
335 332 328 326 322 322 319 275 273 283 289 316 331 329 334 38 77 60 54 247 270 286 176 140 245 121 96 124 218 264 267 308 34 83 56 140 189 45 135 164 103 131 297 31 194 246 281 275 190 154 181 200 178 143 168 159 138 130 104 66 44 33 33 48 55 81 72 359 252 266 290 131 201 284 263 125 237 239 263 277 245 210 203 202 201 198 186 182
332 328 325 320 309 304 301 279 295 302 277 332 333 331 353 52 71 91 210 246 264 300 3 347 329 47 109 153 220 267 253 287 15 97 111 137 79 54 90 118 72 72 8 350 308 297 332 339 252 255 229 156 110 74 59 46 74 98 81 73 73 6 10 31 359 43 95 265 260 269 277 150 154 254 246 268 277 263 251 260 253 223 208 199 195 190 178 176
329 326 320 311 298 276 253 258 289 292 292 322 334 357 70 74 104 168 239 285 302 300 358 289 309 359 207 190 209 222 190 234 248 141 148 152 152 167 178 183 163 63 355 278 288 339 324 261 270 307 276 154 113 77 32 15 34 77 84 89 96 22 11 34 318 1 155 241 255 301 310 177 202 222 221 264 282 282 256 250 259 249 226 195 173 166 154 152
328 325 317 308 291 263 257 266 272 272 285 308 350 51 77 107 219 220 238 286 270 279 330 216 300 306 222 130 223 213 171 211 222 182 153 127 156 204 236 182 157 124 156 216 204 343 307 300 318 325 282 188 131 130 145 307 71 125 133 126 122 102 80 188 268 316 238 243 273 317 315 252 271 260 229 267 282 289 289 280 267 235 191 152 136 126 114 105
328 325 317 306 286 266 264 263 251 246 263 288 73 71 99 152 233 226 230 251 254 307 345 290 310 316 291 197 244 188 148 239 201 153 147 104 136 222 261 240 164 126 119 142 158 181 190 307 281 202 247 259 154 162 164 154 146 167 156 128 140 153 141 185 216 176 199 238 309 310 297 167 217 284 292 287 297 317 342 6 49 84 98 107 101 88 85 79
329 327 320 304 286 280 271 252 233 209 187 106 72 92 155 201 239 210 219 242 265 318 320 317 351 359 336 312 299 149 141 251 152 121 138 142 167 204 196 211 199 132 118 157 214 175 154 242 260 255 255 158 172 185 135 115 98 212 132 108 149 180 141 133 174 168 166 137 33 277 233 201 217 287 315 329 345 356 16 52 79 84 85 89 82 74 71 61
332 332 328 312 310 319 308 260 217 194 174 109 95 169 198 214 211 189 212 213 73 326 333 348 40 67 323 314 330 354 61 79 104 104 161 184 189 202 196 216 194 160 148 161 203 166 136 254 282 319 347 161 180 183 142 133 161 173 127 159 213 174 119 110 127 50 85 120 184 260 252 303 345 336 329 359 15 10 15 38 89 105 104 98 91 89 83 65
333 337 339 337 335 326 310 267 194 180 158 107 150 206 215 215 193 187 226 29 51 64 66 21 328 197 272 286 291 298 13 359 37 92 215 223 216 205 218 276 183 186 186 158 198 201 144 259 291 352 70 327 328 107 84 74 125 130 173 193 184 97 93 104 109 20 49 137 247 337 286 277 42 48 308 345 13 11 8 18 74 99 107 110 114 117 113 109
330 336 330 344 344 330 297 219 173 162 118 118 182 223 209 211 201 188 218 27 19 48 80 167 248 253 198 211 264 244 146 313 330 20 181 217 249 189 194 299 167 207 209 157 179 244 120 234 292 278 161 312 355 70 65 1 57 121 173 159 114 118 133 92 118 131 108 158 261 342 331 242 190 210 253 239 219 211 232 282 104 99 109 123 135 131 121 118
329 344 2 354 351 341 235 172 160 137 85 158 195 224 202 223 248 227 210 54 90 85 107 218 236 312 245 190 235 256 131 165 289 355 190 160 202 194 91 192 169 297 247 156 165 242 102 133 273 279 198 333 5 63 144 305 13 45 69 61 50 129 152 152 138 148 144 154 201 324 354 263 226 210 190 205 228 221 207 214 160 88 89 115 143 128 111 102
350 56 22 358 359 15 147 149 143 110 136 173 193 208 214 237 265 268 236 208 178 155 204 223 197 266 265 241 220 243 115 165 152 105 248 199 132 224 300 236 158 343 17 125 130 77 81 127 221 290 337 40 36 208 190 184 128 67 59 63 20 70 118 146 90 88 129 139 166 162 232 264 253 215 183 200 229 230 211 192 154 46 55 57 66 91 100 101
17 79 352 358 15 112 132 121 113 126 155 149 169 204 254 226 245 304 272 207 196 225 220 198 199 217 225 263 261 219 207 195 159 143 197 224 128 175 278 238 172 186 85 77 72 108 122 145 178 299 4 58 261 285 260 204 165 140 139 161 153 123 121 125 110 297 107 120 165 158 182 263 271 272 249 232 227 229 200 146 122 79 81 72 60 74 86 102
34 89 340 358 42 146 68 42 204 58 128 153 197 209 257 194 190 290 280 238 202 227 257 201 223 232 205 215 242 205 161 179 200 170 176 198 178 178 270 314 277 148 102 98 149 187 143 112 103 54 12 216 264 297 328 357 109 107 105 125 133 122 113 126 170 220 101 93 158 122 124 255 272 293 285 278 247 215 167 137 130 108 95 89 79 74 66 68
46 187 339 5 67 175 36 48 258 347 149 236 282 231 244 192 197 255 265 344 261 216 351 249 219 227 219 217 195 177 158 162 187 194 188 187 186 196 221 303 315 32 77 110 211 184 117 92 81 19 314 312 304 324 353 17 63 73 51 51 89 77 99 139 172 172 133 149 154 93 119 252 292 326 326 321 329 108 107 116 123 116 92 87 85 76 76 78
13 230 324 17 48 103 55 55 293 326 295 311 346 326 299 236 204 240 208 10 359 43 354 278 247 342 293 43 87 96 303 154 126 357 176 128 338 226 184 59 49 45 60 168 196 160 133 93 96 96 23 350 335 340 344 351 35 76 55 8 44 69 76 113 131 81 112 184 154 127 191 244 291 342 8 16 33 59 58 68 97 108 99 88 86 83 98 122
8 303 282 11 42 60 69 140 191 245 297 340 6 344 332 303 276 311 122 98 30 62 111 274 296 354 9 41 53 23 30 87 102 13 44 21 337 313 15 58 73 70 54 33 47 107 105 76 102 128 149 173 187 229 250 258 17 55 90 33 46 81 89 132 121 83 135 193 139 136 194 241 306 351 8 10 18 33 31 39 58 70 71 61 57 66 71 74
50 38 316 334 29 48 52 354 71 203 309 6 22 358 351 314 314 357 83 78 32 69 69 328 335 22 40 45 51 18 15 33 63 64 39 346 319 322 337 29 79 92 94 66 39 72 99 56 59 114 138 176 188 225 234 150 88 44 118 56 45 57 66 91 96 115 179 163 133 213 185 157 342 347 358 358 4 20 18 22 32 35 36 30 24 31 32 35
81 54 4 318 341 17 25 10 15 18 3 21 52 4 346 322 320 359 43 51 65 77 69 25 18 30 20 32 77 41 355 8 35 47 21 326 291 305 327 20 57 14 12 75 40 68 95 39 11 70 59 50 183 277 326 88 87 59 42 32 32 40 52 78 93 171 148 125 195 269 169 108 1 341 351 346 351 15 21 17 22 25 20 22 30 32 30 27
55 116 286 312 355 6 8 351 357 14 22 28 53 12 359 7 23 9 346 3 47 38 64 40 18 16 347 313 114 64 353 15 31 8 347 344 335 335 344 19 36 359 348 50 39 83 104 67 340 63 39 18 21 20 41 71 71 50 30 8 24 48 56 76 85 331 77 133 195 220 87 81 355 336 344 339 348 22 35 26 28 31 23 32 45 42 32 24
47 65 308 4 64 28 354 335 343 13 25 23 21 13 8 14 23 12 344 351 11 11 54 74 11 3 12 35 105 80 8 48 54 358 342 356 341 3 14 355 349 359 17 52 34 73 108 118 110 92 54 17 11 27 55 62 55 41 21 5 41 69 67 72 65 18 67 107 145 114 89 67 345 317 331 337 350 46 62 48 42 39 33 45 53 47 37 30
51 70 319 14 52 16 355 352 0 32 28 19 16 7 2 9 13 13 22 34 21 351 19 74 39 5 27 45 71 89 82 122 100 3 344 21 352 18 46 341 314 343 7 41 23 35 96 154 165 98 73 4 345 4 37 53 63 53 15 359 35 69 65 53 32 26 65 86 105 99 88 65 6 347 356 357 25 62 59 48 44 40 37 53 60 52 44 41
358 232 333 70 42 2 352 343 14 65 35 13 14 360 357 2 360 4 36 41 49 23 357 10 6 355 31 45 51 58 281 202 192 237 228 175 325 359 16 294 323 344 352 17 10 9 71 132 140 88 105 244 296 326 48 69 77 71 23 354 8 52 79 72 38 14 88 140 136 99 96 107 310 349 22 36 53 59 53 43 43 42 41 56 64 58 53 49
358 285 43 89 77 7 352 343 10 52 58 352 343 347 348 353 358 20 53 17 23 34 7 331 359 32 37 33 24 351 309 256 228 239 225 204 233 253 259 287 314 331 327 354 31 23 90 136 143 111 133 183 205 152 145 104 96 109 279 326 4 67 116 103 59 15 14 132 145 138 150 179 232 11 64 61 57 58 52 39 38 39 42 53 58 55 51 44